Location: Unspecified
(58.9933°N, 5.6375°E)
Time: 14:08:34
(UTC+02:00)

Cosmos 2058 - Pass Details

Date: 28 January 2018
Orbit: 564 x 584 km, 82.5° (Epoch: 21 May)

Event Time Altitude Azimuth Distance (km) Brightness Sun altitude
Rises 20:07:34 0° 228° (SW) 2,803 7.0 -25.3°
Reaches altitude 10° 20:10:03 10° 242° (WSW) 1,910 6.2 -25.6°
Maximum altitude 20:13:36 26° 299° (WNW) 1,184 5.1 -26.1°
Drops below altitude 10° 20:17:10 10° 357° (N) 1,922 5.7 -26.5°
Enters shadow 20:18:27 - 5° (N) 2,369 6.1 -26.7°
